Regional Weather Roundup
Issued by NWS Wakefield, VA

Home | Current Version | Previous Version | Graphics & Text | Print | Product List | Glossary On
Versions: 1 2 3 4 5 6 7 8 9 10 11 12 13 14 15 16 17 18 19 20 21 22 23 24 25 26 27 28 29 30 31 32 33 34 35 36 37 38 39 40 41 42 43 44 45 46 47 48 49 50
000
ASUS41 KAKQ 290510
RWRAKQ

REGIONAL WEATHER ROUNDUP
NATIONAL WEATHER SERVICE WAKEFIELD VA
100 AM EDT FRI AUG 29 2014

Note: "fair" indicates few or no clouds below 12,000 feet with no
significant weather and/or obstructions to visibility. * = Denotes
station may not report precipitation (e.g., rain,snow,etc.),
thunder or fog.

VAZ042-051-052>054-056-290600-
NORTHERN VIRGINIA

CITY           SKY/WX    TMP DP  RH WIND       PRES   REMARKS
WASH NATIONAL  CLEAR     72  53  51 NW5       30.10R
DULLES         CLEAR     60  54  80 S3        30.11S
FORT BELVOIR   CLEAR     60  57  88 SE1       30.11R
QUANTICO       CLEAR     66  60  81 NW7       30.11R
FREDERICKSBRG* CLEAR     69  58  66 CALM      30.09R
STAFFORD*      CLEAR     65  57  76 N3        30.14R
WARRENTON      CLEAR     58  58 100 CALM      30.11R
CULPEPER*      CLEAR    N/A N/A N/A CALM      30.12R
MANASSAS*      CLEAR     61  61 100 CALM      30.11S
LEESBURG*      CLEAR     63  57  82 N6        30.12S
WINCHESTER     CLEAR     59  52  77 CALM      30.13R
$$

VAZ048-049-060>072-079>083-290600-
CENTRAL AND SOUTH CENTRAL VIRGINIA...AND NORTH CENTRAL NORTH CAROLINA

CITY           SKY/WX    TMP DP  RH WIND       PRES   REMARKS
RICHMOND       MOCLDY    74  61  63 NE6       30.08R
CHESTERFIELD*  CLOUDY   N/A N/A N/A NE6       30.10R
PETERSBURG*    CLOUDY    72  65  77 CALM      30.08S
HANOVER        MOCLDY    71  62  73 CALM      30.11R
TAPPAHANNOCK*  CLEAR     65  60  84 CALM      30.09S
CHARLOTTSVILLE CLEAR     68  55  63 NE8       30.12R
ORANGE*        CLEAR     66  54  63 NE3       30.13R
LOUISA*        CLOUDY    70  57  64 NE3       30.11R
FARMVILLE*     PTCLDY    70  70 100 N6        30.07R
SOUTH HILL*      N/A     72  70  94 NE3       30.11R
ROANOKE RAPIDS PTCLDY    70  70 100 CALM      30.03R FOG
RALEIGH        PTCLDY    75  71  87 CALM      30.03R
$$

VAZ088>098-290600-
SOUTHEAST VIRGINIA

CITY           SKY/WX    TMP DP  RH WIND       PRES   REMARKS
NORFOLK        MOCLDY    75  71  87 E5        30.05R
VIRGINIA BEACH PTCLDY    72  70  93 CALM      30.04R
NORFOLK NAVAL  MOCLDY    78  68  71 NE8       30.06R
WEST POINT*    MOCLDY    74  61  64 NE3       30.09R
NEWPORT NEWS   PTCLDY    78  67  68 NE7       30.06R
LANGLEY AFB    MOCLDY    75  68  78 NE8       30.05R
FORT EUSTIS    MOCLDY    76  66  70 VRB2      30.04S
WILLIAMSBURG*  PTCLDY    75  70  83 CALM      30.07R
FRANKLIN*      CLOUDY    73  72  94 E3        30.04S
WAKEFIELD      LGT RAIN  74  71  91 W5        30.07R
$$

VAZ020-022-025-037-045-290600-
WESTERN AND SOUTHWEST VIRGINIA

CITY           SKY/WX    TMP DP  RH WIND       PRES   REMARKS
STAUNTON*      CLEAR     62  54  75 CALM      30.16R
HOT SPRINGS VA CLEAR     60  52  72 E3        30.25R
LYNCHBURG      CLEAR     71  68  90 NE9       30.11R
DANVILLE       CLEAR     73  69  87 NE5       30.05R
MARTINSVILLE   CLEAR     70  70 100 CALM      30.10R FOG
ROANOKE        CLEAR     73  60  63 NE5       30.13R
BLACKSBURG     CLEAR     66  64  94 CALM      30.17S
DUBLIN*        CLEAR     67  64  91 CALM      30.17R
MARION*        CLEAR    N/A N/A N/A CALM      30.20R
HILLSVILLE*    CLEAR     68  64  85 NE5       30.18S
RICHLANDS*     CLEAR     71  66  84 E3        30.17S
WISE*          CLEAR     68  68 100 NE5       30.18S
ABINGDON*      CLEAR     70  67  90 CALM      30.13S
$$

MDZ021>025-VAZ099-100-290600-
SOUTHERN MARYLAND AND THE DELMARVA PENINSULA

CITY           SKY/WX    TMP DP  RH WIND       PRES   REMARKS
PATUXENT RIVER CLEAR     69  54  58 NE8       30.08R
BAY BRIDGE APT   N/A     70  54  56 N3        30.08S
LEONARDTOWN    CLEAR     63  55  77 CALM      30.10S
DOVER          CLEAR     62  56  80 N10       30.07R
GEORGETOWN     CLEAR     65  53  65 VRB5      30.08R
EASTON         CLEAR     65  56  73 CALM      30.12S
CAMBRIDGE      CLEAR     61  55  82 CALM      30.08S
SALISBURY      CLEAR     66  56  70 CALM      30.08R
OCEAN CITY     CLEAR     63  58  83 NW3       30.07R
WALLOPS ISLAND CLEAR     68  58  70 N7        30.08R
ACCOMACK*      NOT AVBL
$$

NCZ012>017-030>032-290600-
EASTERN NORTH CAROLINA

CITY           SKY/WX    TMP DP  RH WIND       PRES   REMARKS
ELIZABETH CITY PTCLDY    75  71  87 CALM      30.05R
AHOSKIE*       PTCLDY    73  71  95 CALM      30.03S
EDENTON*       CLEAR     75  72  88 E3        30.04R
CURRITUCK*     MOCLDY    73  69  89 CALM      30.06R
KILL DEVIL HLS MOCLDY    76  72  88 CALM      30.04R
MANTEO         MOCLDY    75  71  88 CALM      30.05R
CAPE HATTERAS  MOCLDY    75  75 100 E5        30.04R
GOLDSBORO      CLEAR     76  76  98 S3        30.01R
WASHINGTON     CLEAR     74  72  95 CALM      30.03S
GREENVILLE     CLEAR     73  73 100 CALM      30.04R
NEW BERN       MOCLDY    77  70  79 SW7       30.04R
WILMINGTON     CLEAR     76  69  79 SW5       30.03S
$$

VAZ048-290600-
ELSEWHERE

CITY           SKY/WX    TMP DP  RH WIND       PRES   REMARKS
HARRISBURG PA  PTCLDY    59  49  69 CALM      30.13R
BALTIMORE      PTCLDY    66  53  63 N3        30.09S
ANNAPOLIS      CLEAR     67  55  65 CALM      30.08S
ANDREWS AFB    CLEAR     60  54  80 NW3       30.10R
WILMINGTON DE  CLEAR     63  49  60 N7        30.11R
PHILADELPHIA   CLEAR     67  47  48 N10       30.11R
WILDWOOD NJ*   CLEAR     66  50  55 N10       30.09R
ATLANTIC CITY  CLEAR     60  52  74 N8        30.08R
HENDERSON NC   CLEAR     73  70  90 S3        30.04R
GREENSBORO     MOCLDY    77  71  82 CALM      30.05S
ROCKY MOUNT    CLEAR     74  72  93 CALM      30.02S FOG
FAYETTEVILLE   CLEAR     76  68  76 S5        30.03R
CHARLOTTE      PTCLDY    72  67  84 CALM      30.05R
$$

VAZ100-290600-
MARINE

STATION/POSITION TIME  TEMP    WIND        PRES    WAVE   SWELL
                       AIR SEA DIR/SP/G            HT/PER HT/PER
                 (UTC) (F)     (DEG/KT/KT) (MB)    (FT/S) (FT/S)
44066 TX TWR #4  0500   72 72  350/ 17/ 21 1016.4R   5/11   5/11
CAPE MAY NJ      0500   71 80   30/  4/  9 1017.8S
LEWES DE         0500   75 77   10/ 14/ 18 1017.9R
15NM E FENWICK I 0500   74 73              1017.6R   4/11
OCEAN-CITY-INLET 0500   71 76  350/  7/  8 1017.6R
WACHAPREAGUE VA  0500   71 81  360/  5/  9 1018.4R
THOMAS POINT MD  0500   72 78  340/  6/  7 1019.5R
GOOSES REEF MD   0500   75      60/  8/ 10 1019.2R
COVE POINT MD    0500   73      50/ 10/ 12 1018.4F
SOLOMONS ISLAND  0500      81                N/A
BISHOPS HEAD MD  0500   72 78   30/ 11/ 12 1018.0S
PINEY POINT MD   0500           70/  5/  6   N/A
POTOMAC MD       0500   76      50/ 14/ 17 1017.8R
CAMBRIDGE MD     0500   72 80   20/  3/  5 1018.3S
LEWISETTA VA     0500   75 80   60/ 12/ 16 1018.3R
RAPPAHANNOCK LGT 0500           40/  8/ 10 1018.6R
STINGRAY PT      0500   78      50/ 14/ 16   N/A
YORK RVR RNG VA  0500   78      80/ 11/ 12 1017.4R
YORKTOWN VA      0500   78 80   50/  9/ 10 1017.5R
JAMESTOWN VA     0500   75      60/  2/  4   N/A
DOMINION TERM VA 0500   78      30/  3/  6 1017.6R
KIPTOPEKE VA     0500      81   90/  5/  6   N/A
CHES BAY BRIDGE  0500   78 78   30/  9/ 11 1017.2R
CAPE HENRY VA    0500   76      80/  1/  2 1016.4R
CHESAPEAKE LGHT  0400   76      CALM  /  1 1018.0R
WILLOUBY STN VA  0500   78      50/  9/ 10 1016.4R
S CRANEY ISL VA  0500           30/  5/  6 1017.2S
CAPE HENRY BUOY  0400      78                N/A     3/10   2/11
1ST LANDING BUOY 0500   78      50/  8/ 12 1017.2S
CAPE CHARLES BUO 0500      77                N/A     3/10   3/10
OFFSHORE WE BUOY 0400      77                N/A     4/10   3/10
64NM E OF VA BCH 0500   76 76   50/  4/  6 1017.3R   5/ 9   5/ 9
DUCK PIER NC     0500   77 78  110/  8/  9 1016.7R
44056 DUCK FRF   0400                        N/A     3/10   2/11
OREGON INLET NC  0500   76 80  120/  2/  5 1017.2R
HATTERAS NC      0500   78 80   70/  2/  3 1017.6R
DIAMOND SHLS NC  0500   80     320/  2/  4 1017.2R   5/ 8   5/ 8
CAPE LOOKOUT NC  0400   80     240/  6/  7 1016.7R
$$



USA.gov is the U.S. government's official web portal to all federal, state and local government web resources and services.